Regional Weather Roundup
Issued by NWS

Home | Current Version | Previous Version | Text Only | Print | Product List | Glossary On
Versions: 1 2 3 4 5 6 7 8 9 10 11 12 13 14 15 16 17 18 19 20 21 22 23 24 25 26 27 28 29 30 31 32 33 34 35 36 37 38 39 40 41 42 43 44 45 46 47 48 49 50
000
ASUS44 KFWD 292315
RWRTX
NORTH TEXAS HOURLY WEATHER ROUNDUP
NATIONAL WEATHER SERVICE FORT WORTH TX
600 PM CDT MON JUN 29 2015

NOTE: "FAIR" INDICATES FEW OR NO CLOUDS BELOW 12,000 FEET WITH NO
SIGNIFICANT WEATHER AND/OR OBSTRUCTIONS TO VISIBILITY.

TXZ118-119-300000-
DALLAS/FORT WORTH METROPLEX

CITY           SKY/WX    TMP DP  RH WIND       PRES   REMARKS
DFW AIRPORT    MOSUNNY   94  66  39 VRB5      29.90F HX  97
DALLAS LOVE    PTSUNNY   96  66  37 NW7       29.90F HX  99
FTW MEACHAM    SUNNY     94  65  38 NW5       29.90F HX  96
DAL-EXECUTIVE  MOSUNNY   93  66  40 CALM      29.91F HX  96
FTW-ALLIANCE   MOSUNNY   94  66  39 CALM      29.91F HX  97
FTW-NAS-JRB    MOSUNNY   95  65  37 N5        29.91F HX  97
FTW-SPINKS     MOSUNNY   95  66  38 S3        29.93F HX  98
ARLINGTON      MOSUNNY   95  66  38 SW9       29.91F HX  98
GRAND PRAIRIE  SUNNY     93  66  40 SE3       29.92F HX  96
ADDISON        MOSUNNY   95  63  34 SW5       29.94S HX  96
MESQUITE       SUNNY     93  66  40 S5        29.91F HX  96
LANCASTER      MOSUNNY   94  63  35 SW5       29.92F HX  95
$$

TXZ091>094-102>105-117-120-121-131>134-300000-
NORTH CENTRAL TEXAS

CITY           SKY/WX    TMP DP  RH WIND       PRES   REMARKS
SHRMAN/DENISON SUNNY     94  67  40 SW8       29.93F HX  97
GAINESVILLE    SUNNY     92  64  39 SW7       29.94F HX  93
BOWIE          SUNNY     89  61  38 SW5       29.93F
BRIDGEPORT     SUNNY     92  69  46 S5        29.94F HX  97
DECATUR        SUNNY     92  62  36 S5        29.94F HX  92
DENTON         SUNNY     93  67  42 SW5       29.91F HX  96
MCKINNEY       SUNNY     93  67  42 S7        29.91F HX  96
GREENVILLE     MOSUNNY   93  59  31 S5        29.92F HX  92
ROCKWALL       MOSUNNY   93  67  41 W5        29.91S HX  96
TERRELL        MOSUNNY   93  70  46 S6        29.92S HX  99
WAXAHACHIE     MOSUNNY   94  68  42 S6        29.93F HX  98
CLEBURNE       SUNNY     91  70  49 CALM      29.94F HX  97
GRANBURY       SUNNY     94  66  39 CALM      29.92F HX  97
$$

TXZ083>090-098>101-113>116-127>130-139>142-154-155-300000-
WESTERN NORTH TEXAS

CITY           SKY/WX    TMP DP  RH WIND       PRES   REMARKS
WICHITA FALLS  PTSUNNY   91  67  44 S8        29.90F HX  94
WF-KICKAPOO    MOSUNNY   95  59  29 S7        29.92F HX  94
VERNON         PTSUNNY   97  47  18 SE8       29.92F HX  93
ABILENE        MOSUNNY   95  59  30 S7        29.95F HX  94
ABILENE-DYESS  MOSUNNY   95  62  33 SE6       29.93F HX  95
BRECKENRIDGE   SUNNY     94  60  31 SE5       29.93F HX  94
GRAHAM         SUNNY     93  64  37 CALM      29.92F HX  95
MINERAL WELLS  SUNNY     91  66  43 SE7       29.91F HX  93
STEPHENVILLE   SUNNY     92  64  39 CALM      29.97F HX  93
COMANCHE       MOSUNNY   91  72  52 E6        29.95F HX  98
BROWNWOOD      LGT RAIN  91  66  43 CALM      29.94F HX  94
COLEMAN        SUNNY     92  68  44 SE3       29.96F HX  96
BRADY          SUNNY     91  64  40 N8        29.97F HX  93
$$

TXZ143>147-156>162-174-175-300000-
CENTRAL TEXAS

CITY           SKY/WX    TMP DP  RH WIND       PRES   REMARKS
WACO           CLOUDY    86  72  62 S10       29.92F THUNDER HX  92
WACO-TSTC      MOSUNNY   88  73  62 S6        29.93F HX  96
WACO-MCGREGOR  CLOUDY    86  72  62 S7        29.94S HX  92
HILLSBORO      MOSUNNY   89  71  54 S13       29.94S HX  95
MEXIA          PTSUNNY   85  75  71 SE14      29.93F HX  94
HEARNE         MOSUNNY   91  73  56 S12       29.95S HX  99
CAMERON        MOSUNNY   92  73  53 S9        29.94S HX 101
TEMPLE         MOSUNNY   90  70  51 S14       29.93F HX  95
KILLEEN        MOSUNNY   88  69  53 S12       29.94F HX  93
KILLEEN-SKYLRK MOSUNNY   91  70  49 S12G18    29.93F HX  97
FORT HOOD      MOSUNNY   91  71  52 S13       29.92F HX  96
GATESVILLE     MOSUNNY   93  68  43 S10       29.95F HX  97
HAMILTON       PTSUNNY   88  68  51 S9        29.95F HX  91
LAMPASAS       MOSUNNY   91  71  52 S7        29.94F HX  97
$$

TXZ095>097-106>112-122>126-135>138-148>153-164>167-300000-
EAST TEXAS

CITY           SKY/WX    TMP DP  RH WIND       PRES   REMARKS
PARIS          MOSUNNY   91  70  49 S12       29.91S HX  97
SULPHUR SPRNGS SUNNY     93  68  44 CALM      29.94S HX  97
MOUNT PLEASANT SUNNY     93  65  39 SW6       29.94R HX  94
GILMER         PTSUNNY   91  74  57 SW3       29.93S HX  99
MINEOLA        MOSUNNY   93  66  40 SW5       29.94S HX  96
TYLER          PTSUNNY   91  74  57 SW6       29.93F HX 100
LONGVIEW       PTSUNNY   82  71  69 S10       29.94S
MARSHALL       CLOUDY    89  77  68 SW5       29.96S HX 101
ATHENS         MOSUNNY   90  72  55 S5        29.92F HX  96
PALESTINE      MOSUNNY   91  74  56 S6        29.95S HX 100
JACKSONVILLE   PTSUNNY   85  73  67 S7        29.97F THUNDER HX  92
HENDERSON      CLOUDY    74  72  93 CALM      29.97S THUNDER
CENTER         FAIR      85  75  71 CALM      29.94S HX  93
NACOGDOCHES    CLOUDY   N/A N/A N/A N3        29.94F
LUFKIN         PTSUNNY   92  73  53 SW7       29.94F HX 100
$$

SUPPLEMENTAL OBSERVATIONS (CENTRAL)

CITY           SKY/WX    TMP DP  RH WIND       PRES   REMARKS
LAKE TEXOMA      N/A     91  64  40 SW9         N/A  HX  93
PAT MAYSE LAKE   N/A     91  73  55 SW7         N/A  HX 100
GREENVILLE       N/A     93  66  40 SW5         N/A  HX  96
CEDAR HILL       N/A     91  70  49 S3          N/A  HX  97
ATHENS           N/A     91  70  49 S8          N/A  HX  97
LAKE LIMESTONE   N/A     91  72  52 S8          N/A  HX  98
MCGREGOR         N/A     86  72  62 S7          N/A  HX  92
TEMPLE           N/A     91  70  49 S12         N/A  HX  97
$$

SUPPLEMENTAL OBSERVATIONS (WEST)

CITY           SKY/WX    TMP DP  RH WIND       PRES   REMARKS
MILLERS CREEK    N/A     93  64  38 SE9         N/A  HX  95
POSSUM KINGDOM   N/A     97  64  34 W1          N/A  HX  99
GRANBURY         N/A     97  68  38 N2          N/A  HX 101
COMANCHE         N/A     90  68  48 SE5         N/A  HX  93
HAMBY            N/A     93  57  29 SE6         N/A  HX  92
IVIE RESERVOIR   N/A     93  64  38 S3          N/A  HX  95
COLORADO BEND    N/A     88  66  48 S9          N/A  HX  90
$$

SUPPLEMENTAL OBSERVATIONS (EAST)

CITY           SKY/WX    TMP DP  RH WIND       PRES   REMARKS
CLARKSVILLE      N/A     93  68  43 SW1G9       N/A  HX  97
TEXARKANA        N/A     91  70  49 SW2         N/A  HX  97
LINDEN           N/A     93  70  46 SW2         N/A  HX  99
CADDO LAKE       N/A     84  75  74 S2          N/A  HX  92
GILMER           N/A     93  73  52 S3          N/A  HX 102
HENDERSON        N/A     73  70  88 N7          N/A
LUFKIN           N/A     88  73  62 MISG        N/A  HX  96
N SABINE NF      N/A     84  79  84 MISG        N/A  HX  96
S SABINE NF      N/A     88  75  66 CALM        N/A  HX  97
$$

SUPPLEMENTAL OBSERVATIONS ARE A COLLECTION OF AUTOMATED INSTRUMENTS
THAT ARE MAINTAINED BY A VARIETY OF FEDERAL AND STATE AGENCIES.
CERTAIN ELEMENTS...SUCH AS HUMIDITY VALUES AND SUSTAINED WIND
SPEEDS...MAY BE APPROXIMATED.



USA.gov is the U.S. government's official web portal to all federal, state and local government web resources and services.